Zurück zum Katalog

ERS 2 DEB

AktivSSO
NORAD 35392·DEBRIS·🇪🇺 EU

Gestartet Apr 21, 1995 von Guiana Space Centre

Loading…

Nächste Überflüge (nächste 24 Stunden)

TLE

AktuellSource: Space-Track

Epoche: Sep 13, 2026, 09:14 UTC

1 35392U 95021F   26256.38492592  .00001800  00000-0  42930-3 0  9992
2 35392  98.3227 227.4433 0002382 159.1247 201.0048 14.54911931982040

Verfolge ERS 2 DEB in Echtzeit mit AllMySat

Download on the App Store